This demonstration page uses our WeatherBlox Daily Observations layout. Learn more.

Left ArrowRight Arrow

41.12389, -100.76542

Hourly Observations for December 10, 2017

Temp ( °F °C ) Dew Point ( °F °C ) Humidity (%) Winds ( mph kmh ) Pressure ( in mb ) Visibility ( mi km ) Precip ( " mm )
12:53 am 00:53 Clear 26 -3.3 15 -9.4 63 63 NW 9 15 30.24 1024 10 16 0.00 0.00
1:53 am 01:53 Clear 33 0.6 15 -9.4 47 47 W 13 20 30.24 1024 10 16 0.00 0.00
2:53 am 02:53 Clear 30 -1.1 14 -10 51 51 W 8 13 30.24 1024 10 16 0.00 0.00
3:53 am 03:53 Clear 26 -3.3 15 -9.4 63 63 W 9 15 30.24 1024 10 16 0.00 0.00
4:53 am 04:53 Clear 21 -6.1 14 -10 74 74 WNW 9 15 30.29 1026 10 16 0.00 0.00
5:53 am 05:53 Clear 23 -5 14 -10 68 68 WNW 7 11 30.30 1026 10 16 0.00 0.00
6:53 am 06:53 Clear 22 -5.6 14 -10 71 71 NW 8 13 30.33 1027 10 16 0.00 0.00
7:53 am 07:53 Clear 21 -6.1 15 -9.4 78 78 NW 10 17 30.35 1028 10 16 0.00 0.00
8:53 am 08:53 Sunny 34 1.1 18 -7.8 52 52 W 8 13 30.32 1027 10 16 0.00 0.00
9:53 am 09:53 Sunny 41 5 16 -8.9 36 36 W 14 22 30.32 1027 10 16 0.00 0.00
10:53 am 10:53 Sunny 48 8.9 16 -8.9 28 28 W 13 20 30.31 1026 10 16 0.00 0.00
11:53 am 11:53 Sunny 54 12.2 16 -8.9 22 22 W 16 26 30.27 1025 10 16 0.00 0.00
12:53 pm 12:53 Sunny 60 15.6 14 -10 16 16 W 15 24 30.26 1025 10 16 0.00 0.00
1:53 pm 13:53 Sunny 63 17.2 12 -11.1 13 13 W 18 30 30.22 1024 10 16 0.00 0.00
2:53 pm 14:53 Sunny 65 18.3 7 -13.9 10 10 WNW 18 30 30.21 1023 10 16 0.00 0.00
3:53 pm 15:53 Sunny 62 16.7 12 -11.1 14 14 W 10 17 30.23 1024 10 16 0.00 0.00
4:53 pm 16:53 Sunny 54 12.2 14 -10 20 20 WSW 10 17 30.23 1024 10 16 0.00 0.00
5:53 pm 17:53 Clear 44 6.7 14 -10 30 30 WSW 9 15 30.25 1024 10 16 0.00 0.00
6:53 pm 18:53 Clear 39 3.9 13 -10.6 34 34 NW 5 7 30.26 1025 10 16 0.00 0.00
7:53 pm 19:53 Clear 32 0 14 -10 47 47 NNW 7 11 30.27 1025 10 16 0.00 0.00
8:53 pm 20:53 Clear 31 -0.6 14 -10 49 49 NNW 9 15 30.24 1024 10 16 0.00 0.00
9:53 pm 21:53 Clear 29 -1.7 15 -9.4 56 56 NW 7 11 30.23 1024 10 16 0.00 0.00
10:53 pm 22:53 Clear 25 -3.9 14 -10 63 63 NW 8 13 30.21 1023 10 16 0.00 0.00
11:53 pm 23:53 Clear 25 -3.9 15 -9.4 66 66 NW 9 15 30.20 1023 10 16 0.00 0.00

Powered by AerisWeather